Location: Unspecified
(37.4190°N, 122.0570°W)
Time: 20:43:38
(UTC+00:00)

Daily predictions for brighter satellites

Satellite Brightness Start Highest point End
(mag) Time Altitude Azimuth Time Altitude Azimuth Time Altitude Azimuth
CZ-4C R/B 3.8 12:01:32 12° NW 12:03:06 13° NW 12:05:35 10° N
COSMOS 2406 4.5 12:05:57 21° W 12:07:41 24° WNW 12:12:19 10° N
Cosmos 1486 Rocket 4.2 12:07:15 10° NNW 12:12:13 46° WSW 12:17:10 10° S
CRYOSAT 2 4.4 12:08:22 10° S 12:13:10 59° W 12:18:00 10° NNW
Cosmos 1271 Rocket 4.3 12:14:00 16° WNW 12:14:00 16° WNW 12:15:38 10° NNW
CZ-2C R/B 2.8 12:10:58 10° NNE 12:15:52 63° E 12:20:34 10° S
CZ-3 Stage 3 4.2 12:10:46 22° WSW 12:17:32 67° S 12:52:49 10° E
ADEOS II 3.3 12:14:06 10° NNW 12:18:15 24° WNW 12:20:03 20° W
ARGOS 3.3 12:14:11 10° N 12:19:26 54° WNW 12:23:46 15° SW
Alouette 2 Rocket 3.2 12:15:18 10° N 12:19:30 87° ENE 12:23:02 10° S
ATLAS 3B R/B 3.8 12:15:38 10° WNW 12:21:05 22° WSW 12:26:17 10° SSW
Meteor 1-11 Rocket 4.0 12:16:39 10° NNW 12:22:18 48° W 12:27:48 10° SSW
USA 290 2.3 12:21:38 29° SW 12:22:56 53° WNW 12:26:02 10° N
Cosmos 468 Rocket 4.0 12:21:42 13° SSW 12:26:25 71° WNW 12:31:42 10° NNE
AQUA 4.4 12:24:06 10° N 12:28:25 38° WNW 12:31:37 16° SW
Chandra Rocket (1) 3.8 12:29:58 14° SSW 12:31:58 18° S 12:37:00 10° SE
Cosmos 1655 Rocket 4.1 12:26:23 10° NNW 12:32:23 52° W 12:38:22 10° SSW
Resurs 1-4 Rocket 4.1 12:31:54 10° NW 12:33:39 12° WNW 12:35:19 10° WNW
Centaur D-1AR AC-36 4.4 12:25:15 15° WSW 12:35:18 27° SSW 12:40:01 10° SE
Cosmos 1766 Rocket 3.6 12:31:33 10° NNW 12:35:49 56° W 12:40:02 10° S
Cosmos 2333 Rocket 2.5 12:30:44 10° NW 12:36:05 45° WSW 12:41:26 10° S
USA 234 3.9 12:31:31 10° S 12:37:10 31° SW 12:42:51 10° WNW
SL-16 R/B 2.6 12:33:02 10° S 12:39:06 54° WSW 12:45:15 10° NNW
SL-14 R/B 3.2 12:52:26 10° S 12:56:17 78° W 13:00:11 10° N
BREEZE-M DEB (TANK) 4.4 12:52:23 10° NW 12:56:55 72° NE 13:14:16 10° ESE
SL-8 R/B 4.1 12:54:43 10° WNW 12:59:10 42° SW 13:03:37 10° SSE
UNK 3.7 12:54:50 10° S 12:59:25 81° WSW 13:04:02 10° NNW
Cosmos 2360 Rocket 2.4 12:55:07 10° NW 13:00:32 48° WSW 13:05:56 10° S
Sich 1 2.9 12:56:22 10° N 13:00:32 82° W 13:04:39 10° S
Cosmos 1408 Rocket 4.4 12:56:21 10° N 13:00:35 54° E 13:04:45 10° SSE
FengYun 1-2 T 4.3 13:03:30 10° N 13:09:06 66° WNW 13:14:41 10° SSW
Aureole 1 Rocket 3.3 13:06:30 10° NNW 13:10:33 53° WSW 13:15:35 10° S
Cosmos 2322 Rocket 2.8 13:05:59 10° NW 13:11:02 35° WSW 13:16:05 10° SSW
S3M 4.1 13:06:03 10° S 13:12:26 89° W 13:18:49 10° N
